Location: Arrington
(35.8681°N, 86.7092°W)
Time: 23:27:49
(UTC+00:00)

ATLAS 2AS CENTAUR R/B - Pass Details

Date: 23 November 2019
Orbit: 926 x 1286 km, 63.7° (Epoch: 09 December)

Event Time Altitude Azimuth Distance (km) Brightness Sun altitude
Rises 00:24:38 0° 195° (SSW) 4,110 6.1 -21.9°
Reaches altitude 10° 00:27:23 10° 191° (S) 3,186 5.4 -22.4°
Maximum altitude 00:34:57 58° 115° (ESE) 1,465 3.1 -23.9°
Enters shadow 00:37:29 42° 62° (ENE) 1,756 3.3 -24.4°
